Location: El Diamante
(32.3755°N, 116.5698°W)
Time: 23:37:21
(UTC+00:00)

Daily predictions for brighter satellites

Satellite Brightness Start Highest point End
(mag) Time Altitude Azimuth Time Altitude Azimuth Time Altitude Azimuth
Landsat 4 4.5 12:00:41 10° NNE 12:04:16 51° E 12:07:49 10° S
SL-08 R/B 4.5 12:01:07 10° N 12:07:17 72° W 12:13:31 10° S
YAOGAN 6 2.9 12:08:23 10° NNE 12:11:59 70° E 12:15:35 10° S
Cosmos 2369 Rocket 3.5 12:11:54 10° WNW 12:15:29 18° W 12:19:03 10° SW
FALCON 9 R/B 4.3 12:09:13 10° W 12:17:13 18° WSW 12:21:25 10° SSW
ATLAS 2A CENTAUR R/B 3.2 12:03:48 10° W 12:17:30 58° S 12:22:34 10° ESE
Nadezhda 3 Rocket 4.3 12:12:01 10° SSW 12:18:07 51° W 12:24:13 10° N
CZ-3 R/B 3.6 12:00:59 10° W 12:36:07 73° SSW 12:44:20 10° ESE
